Weather in San Cristobal

Venezuela     7°46′00″N   72°13′29″W
temp.,
°C
wind,
m/s
gust,
m/s
humid.,
%
clouds,
%
prec.,
mm/h
press.,
hPa
HPBL,
m
16 september, thu
thu1623:00+17ese12875 0.0 101750
02:00+17ese128825 0.0 101650
05:00+16ese12879 0.0 101553
08:00+20se24715 0.0 1017308
11:00+26se48476 0.1 10161585
14:00+27se584826 0.2 10141714
17:00+22se367893 1.0 1014668
20:00+18ese239899 2.0 1016127
17 september, fri
fri1723:00+17ese139930 0.3 101874
02:00+17ese129579 0.3 101656
05:00+16ese129510 0.0 101556
08:00+19ese23865 0.0 1017174
11:00+26se47495 0.1 10161545
14:00+27se47469 0.3 10131561
17:00+25se355518 0.2 10121229
20:00+18ese1294100 0.4 101655
18 september, sat
sat1823:00+17ese129489 0.1 101647
02:00+17ese129629 0.3 101548
05:00+16ese129768 0.0 101445
08:00+19ese238538 0.0 1015192
11:00+27se364777 0.1 10141465
14:00+29se45399 0.1 10101954
17:00+26se3452100 0.4 10101422
20:00+18ese129473 1.0 101461
19 september, sun
sun1923:00+17e119755 0.1 101537
02:00+17ne119762 0.7 101423
05:00+17e1194100 0.6 101333
08:00+18se129288 0.6 1015114
11:00+26se345823 0.5 10141350
14:00+27se345292 1.9 10111593
17:00+24se3466100 1.4 1010899
20:00+18ese23100100 9.5 1013136
20 september, mon
mon2023:00+18ene119895 4.3 101437
02:00+17nw119896 4.9 101334
05:00+17nw119776 0.9 101323
08:00+19e019078 0.9 101492
11:00+27se25486 0.1 10131531
14:00+28se464310 0.4 10101917
17:00+24se356798 0.8 1010939
20:00+18ese2399100 3.8 101377